Location: Lachepaillet
(43.4918°N, 1.4874°W)
Time: 23:41:41
(UTC+00:00)

Helios 1B rocket - Pass Details

Date: 15 May 2026
Orbit: 459 x 465 km, 98.2° (Epoch: 9 June)

Event Time Altitude Azimuth Distance (km) Brightness Sun altitude
Exits shadow 23:00:16 38° 348° (NNW) 729 3.4 -25.9°
Drops below altitude 10° 23:02:33 10° 347° (NNW) 1,639 5.8 -26.0°
Sets 23:04:36 0° 347° (NNW) 2,520 7.0 -26.1°
